Location: Gro� Glienicke
(52.4675°N, 13.1079°E)
Time: 16:55:30
(UTC+00:00)

Cosmos 1340 - Pass Details

Date: 06 July 2020
Orbit: 502 x 505 km, 81.2° (Epoch: 13 August)

Event Time Altitude Azimuth Distance (km) Brightness Sun altitude
Exits shadow 23:15:34 24° 214° (SW) 1,075 3.8 -15.0°
Maximum altitude 23:17:38 58° 286° (WNW) 594 3.0 -15.0°
Drops below altitude 10° 23:21:23 10° 6° (N) 1,727 6.8 -14.9°
Sets 23:23:33 0° 11° (N) 2,617 8.1 -14.9°
